This is the latest recevied weather packets stored in our database for station/object IU2BEE-13. If no packets are shown the sender has not sent any weather packets the latest 10 day(s).
| Time | Temp. | Humidity | Pressure | Rain* | Wind** | Luminosity | Snow |
|---|---|---|---|---|---|---|---|
| 1787497804 | 28.33° C | 36% | 1025.3 hPa | 0 mm | - | - | - |
| 1787497503 | 28.33° C | 36% | 1025.3 hPa | 0 mm | - | - | - |
| 1787497203 | 27.78° C | 38% | 1025.3 hPa | 0 mm | - | - | - |
| 1787496903 | 27.78° C | 37% | 1025.2 hPa | 0 mm | - | - | - |
| 1787496603 | 27.22° C | 40% | 1025.4 hPa | 0 mm | - | - | - |
| 1787496303 | 27.78° C | 35% | 1025.4 hPa | 0 mm | - | - | - |
| 1787496003 | 28.33° C | 35% | 1025.5 hPa | 0 mm | - | - | - |
| 1787495703 | 27.78° C | 37% | 1025.3 hPa | 0 mm | - | - | - |
| 1787495403 | 27.78° C | 35% | 1025.4 hPa | 0 mm | - | - | - |
| 1787495103 | 27.78° C | 36% | 1025.3 hPa | 0 mm | - | - | - |
| 1787494803 | 27.78° C | 34% | 1025.3 hPa | 0 mm | - | - | - |
| 1787494503 | 28.33° C | 33% | 1025.3 hPa | 0 mm | - | - | - |
| 1787494203 | 27.78° C | 33% | 1025.4 hPa | 0 mm | - | - | - |
| 1787493903 | 28.89° C | 34% | 1025.4 hPa | 0 mm | - | - | - |
| 1787493603 | 28.89° C | 34% | 1025.4 hPa | 0 mm | - | - | - |
| 1787493303 | 28.33° C | 35% | 1025.4 hPa | 0 mm | - | - | - |
| 1787493003 | 28.89° C | 33% | 1025.4 hPa | 0 mm | - | - | - |
| 1787492703 | 28.33° C | 34% | 1025.4 hPa | 0 mm | - | - | - |
| 1787492403 | 28.33° C | 33% | 1025.5 hPa | 0 mm | - | - | - |
| 1787492103 | 28.33° C | 35% | 1025.5 hPa | 0 mm | - | - | - |
| 1787491803 | 27.78° C | 35% | 1025.5 hPa | 0 mm | - | - | - |
| 1787491503 | 27.78° C | 34% | 1025.6 hPa | 0 mm | - | - | - |
| 1787491203 | 27.78° C | 35% | 1025.6 hPa | 0 mm | - | - | - |
| 1787490903 | 27.78° C | 34% | 1025.6 hPa | 0 mm | - | - | - |
| 1787490603 | 27.78° C | 37% | 1025.6 hPa | 0 mm | - | - | - |
* Rain latest hour (hover to see other rain measurements)
** Current wind speed in m/s (hover to see current wind gust speed)